Location: Avebury
(53.1487°N, 106.9774°W)
Time: 15:50:55
(UTC+00:00)

Envisat - Pass Details

Date: 23 January 2022
Orbit: 764 x 765 km, 98.2° (Epoch: 22 May)

Event Time Altitude Azimuth Distance (km) Brightness Sun altitude
Rises 00:46:59 0° 223° (SW) 3,223 7.4 -10.8°
Reaches altitude 10° 00:50:49 10° 253° (WSW) 2,303 7.1 -11.3°
Maximum altitude 00:52:52 12° 277° (W) 2,146 6.4 -11.6°
Drops below altitude 10° 00:54:56 10° 301° (WNW) 2,310 6.1 -11.9°
Sets 00:58:48 0° 331° (NNW) 3,243 6.4 -12.5°
